Flight Information

DEPARTURE
LONG BEACH, CA
Elevation:
60
Runways:
8L/26R - 6192x150 - ASPH-E
8R/26L - 3918x100 - ASPH-G
H4 - 20x20 - ASPH-G
H5 - 20x20 - ASPH-G
H3 - 300x35 - ASPH-G
H2 - 20x20 - ASPH-G
12/30 - 10000x200 - ASPH-G
Active PE Departure:
26L - 26R - 30
Current PE ATIS:
T
Altimeter:
30.13
Remarks:
ATIS:
127.75 562-595-8564
Clearance Delivery:
118.15
Ground:
133
Tower:
LONG BEACH TOWER 119.4
DESTINATION
,
Elevation:
TPA:
1000 (est.)


6784.4 NM73° True-14° Var59° HDG

Flight Plan:
(click to file on line)

1. Type
2. Aircraft Identification
3. Aircraft Type / Special Equipment
4. True Airspeed
kts
5. Departure Airport
(ICAO code)
6. Arriving Airport
(ICAO code)
7. Cruising Altitude
ft
8. Alternate Airport
(ICAO code)
9. Route of Flight
10. Remarks


00:00:00 Departure ATIS: Destination ATIS:

Clearance Limit:
Route:
Altitude: Expect in minutes
Frequency:
Transponder: (7500 Hijack / 7600 Lost Comms / 7700 Emergency)


KLGB 042353Z 33006KT 5SM BR FEW007 OVC022 17/14 A3007 RMK AO2 RAE23 SLP183 P0000 60001 T01670144 10194 20167 58005
Time: 2022-12-04T23:53:00Z
1670650024
Winds: 330 @ 6 kts
Visibility: 5.0 sm
Clouds (AGL): FEW 700
OVC 2200
Temperature: 16.7 C
Dew Point: 14.4 C
Pressure: 30.070866 in Hgbr


Notes:

Data extracted from FAA Digital Chart Supplement. Effective: 0901Z Thursday, 27 JAN 2022 to 0900z Thursday, 24 MAR 2022
Current ATIS data is provided courtisy of PilotEdge.